CZ-6A DEB

Satellite information

Favourite Embed

Satellite Type and Status

DEBRISIN ORBIT

Key statistics

Satellite CZ-6A DEB at a glance.

Uptime

1085

Days in orbit

Revolutions

≈ 14.6

Per day

Orbit

SSO

Sun Synchronous Orbit

Inclination

98.6

Latest

Satellite identification and parameters

Extended collection of information and parameters for CZ-6A DEB.

Object identification

Identified? True

Debris? True

Object name: CZ-6A DEB

International designator: 2022-151RG

Object number (NORAD): 54919

Object ID (CCSDS): 54919

Country: PEOPLES REPUBLIC OF CHINA (PRC)

Current information (Y/N): Y

RCS size: SMALL

Orbital parameters

Period: 98.304 minutes

Inclination: 98.6401 deg

SMA: 7055.723 km

Apoapsis: 733.396 km

Periapsis: 621.779 km

RAAN: 351.1491 deg

Eccentricy: 0.00790969

Argument of periapsis: 280.6933 deg

Mean anomaly: 78.5369 deg

Mean motion: 14.64841035 rev/day

Mean motion (dot): 0.00019953 rev/day2

B* drag term: 0.0035701908 1/REarth

Two-line elements (TLE)

Creation date: Oct. 30, 2025, 10:34 a.m.

Reference frame: TEME

Reference center: EARTH

Epoch: Oct. 30, 2025, 2:02 a.m. UTC

TLE line 0: 0 CZ-6A DEB

TLE line 1: 1 54919U 22151RG 25303.08530686 .00019953 00000-0 35702-2 0 9994

TLE line 2: 2 54919 98.6401 351.1491 0079097 280.6933 78.5369 14.64841035153020

Live tracking on map

Real-time ground track for satellite CZ-6A DEB.

In-orbit conjunctions

A list of the most updated potential collisions computed for object CZ-6A DEB.

Target Orbit TCA Probability of collision Miss distance Type
COSMOS 220 LEO 2025-08-05 10:41:55 0.0004684285 113.0 (m) PAYLOAD
THORAD AGENA D DEB LEO 2025-01-08 11:53:35 0.0001104561 70.0 (m) DEBRIS

Associated space launch

Chinese satellite reported for atmospheric/ocean/environmental/spatial parameter research purposes, details TBD.

CZ-6A DEB was lifted into orbit during the mission ‘Long March 6A | Yunhai 3’, on board a Long March 6A space rocket.

The launch took place on Nov. 11, 2022, 10:52 p.m. from Launch Complex 9A.

For more information about the launch, click the button.

Launch to space Long March 6A | Yunhai 3
Long March 6A | Yunhai 3

Agency: N/A

Status: Launch Successful

Launch date: Nov. 11, 2022, 10:52 p.m. UTC

Rocket: Long March 6A

Launch pad: Launch Complex 9A

Location: Taiyuan Satellite Launch Center, People's Republic of China

...

Latest news about this satellite

There are no fresh news available about this satellite. Check back as we update our databases every day.


Newsletter sign-up

Weekly statistics, charts and insights to help you stay on top of the space industry.